TimePST,TemperatureF,Dew PointF,Humidity,Sea Level PressureIn,VisibilityMPH,Wind Direction,Wind SpeedMPH,Gust SpeedMPH,PrecipitationIn,Events,Conditions,WindDirDegrees,DateUTC
12:52 AM,50.0,27.0,41,30.19,10.0,ENE,6.9,-,N/A,,Clear,70,2013-12-16 08:52:00
1:52 AM,48.9,27.0,43,30.20,10.0,WSW,6.9,-,N/A,,Clear,240,2013-12-16 09:52:00
2:52 AM,48.9,25.0,39,30.19,10.0,NNW,3.5,-,N/A,,Clear,330,2013-12-16 10:52:00
3:52 AM,50.0,25.0,38,30.19,10.0,West,3.5,-,N/A,,Clear,280,2013-12-16 11:52:00
4:52 AM,51.1,24.1,35,30.19,10.0,Calm,Calm,-,N/A,,Clear,0,2013-12-16 12:52:00
5:52 AM,50.0,25.0,38,30.20,10.0,West,5.8,-,N/A,,Clear,260,2013-12-16 13:52:00
6:52 AM,48.0,25.0,41,30.21,10.0,WSW,3.5,-,N/A,,Clear,240,2013-12-16 14:52:00
7:52 AM,52.0,26.1,37,30.23,10.0,WSW,5.8,-,N/A,,Clear,250,2013-12-16 15:52:00
8:52 AM,57.0,26.1,30,30.24,10.0,Calm,Calm,-,N/A,,Clear,0,2013-12-16 16:52:00
9:52 AM,61.0,25.0,25,30.25,10.0,SW,5.8,-,N/A,,Clear,230,2013-12-16 17:52:00
10:52 AM,64.0,25.0,23,30.23,10.0,South,3.5,-,N/A,,Clear,190,2013-12-16 18:52:00
11:52 AM,66.9,24.1,20,30.19,10.0,East,3.5,-,N/A,,Clear,100,2013-12-16 19:52:00
12:52 PM,70.0,28.0,21,30.16,10.0,Variable,4.6,-,N/A,,Clear,0,2013-12-16 20:52:00
1:52 PM,72.0,28.9,20,30.14,10.0,ESE,3.5,-,N/A,,Clear,110,2013-12-16 21:52:00
2:52 PM,73.0,28.0,19,30.13,10.0,Calm,Calm,-,N/A,,Clear,0,2013-12-16 22:52:00
3:52 PM,73.9,23.0,15,30.12,10.0,North,6.9,-,N/A,,Clear,350,2013-12-16 23:52:00
4:52 PM,69.1,25.0,19,30.13,10.0,Calm,Calm,-,N/A,,Clear,0,2013-12-17 00:52:00
5:52 PM,64.9,26.1,23,30.14,10.0,NNW,3.5,-,N/A,,Clear,340,2013-12-17 01:52:00
6:52 PM,64.9,25.0,22,30.15,10.0,North,4.6,-,N/A,,Clear,10,2013-12-17 02:52:00
7:52 PM,62.1,25.0,24,30.15,10.0,North,4.6,-,N/A,,Clear,10,2013-12-17 03:52:00
8:52 PM,60.1,25.0,26,30.17,10.0,WNW,6.9,-,N/A,,Clear,290,2013-12-17 04:52:00
10:52 PM,55.9,25.0,30,30.18,10.0,WNW,4.6,-,N/A,,Clear,290,2013-12-17 06:52:00
11:52 PM,55.9,25.0,30,30.18,10.0,NNW,4.6,-,N/A,,Clear,330,2013-12-17 07:52:00